Tracking 30995 objects as of 7-Jul-2025
HD Live streaming from Space Station
objects crossing your sky now

NOAA 16 DEB

Track NOAA 16 DEB now!
10-day predictions


NORAD ID: 41215
Int'l Code: 2000-055DU
Perigee: 735.7 km
Apogee: 769.1 km
Inclination: 98.8 °
Period: 99.7 minutes
Semi major axis: 7123 km
RCS: Unknown
Launch date: September 21, 2000
Source: United States (US)
Launch site: AIR FORCE WESTERN TEST RANGE (AFWTR)

Note: This is SATELLITE DEBRIS
Your satellite tracking list
Your tracking list is empty




NASA's NSSDC Master Catalog

Two Line Element Set (TLE):
1 41215U 00055DU  25186.56530169  .00005849  00000-0  17174-2 0  9998
2 41215  98.8000 309.4662 0023494  43.5928 316.7113 14.44017987497358
Source of the keplerian elements: AFSPC